Location: *
(37.9500°N, 27.3666°E)
Time: 14:30:14
(UTC+00:00)

OAO 3 Rocket - Pass Details

Date: 24 October 2021
Orbit: 628 x 682 km, 35.0° (Epoch: 05 December)

Event Time Altitude Azimuth Distance (km) Brightness Sun altitude
Rises 17:42:58 0° 253° (WSW) 2,963 7.5 -28.6°
Reaches altitude 10° 17:45:21 10° 249° (WSW) 2,062 6.5 -29.1°
Enters shadow 17:48:22 36° 230° (SW) 1,042 4.4 -29.7°
